sat.trackr.live / text

‹ back to catalog

NINGXIA-1 7

NORAD 49019 · 2021-064B

PAYLOAD ACTIVE UNKNOWN

§ Identity

Operator
Country
PRC
Launch date
2021-07-09
Launch site
TAISC
Launch vehicle
Mass (kg)
RCS (m²)

External: N2YO · Heavens-Above · Gunter

§ Orbital elements

Epoch: 2026-09-20T22:36:17.143776Z

Period
102.23 min
Inclination
45.0014°
Eccentricity
0.0007587
Mean motion
14.08559147 rev/d
Perigee alt
858.8 km
Apogee alt
869.8 km
Semi-major
7,242.4 km
B*
-8.4278e-5
RAAN
154.7461°
Arg perigee
334.0094°
Mean anomaly
26.0360°
Rev number
26,774

§ Raw data

NINGXIA-1 71 49019U 21064B   26263.94186509 -.00000278  00000+0 -84278-4 0  99982 49019  45.0014 154.7461 0007587 334.0094  26.0360 14.08559147267744

JSON: /api/v1/satellites/49019 · /tle

For live sub-satellite position, see the globe view (requires WebGL).

§ Visibility from observer

Set your observer location to see the next 7 days of passes ≥ 10°. The values pass through the URL so the page stays shareable.

No JS? Fill the form by hand. The geolocation button needs JavaScript.